Date_Time,Julian_Date,Latitude,Longitude,Instrument_Depth,Water_Temperature
(yyyy-mm-dd hh:mn:ss UTC),(JD),(+ deg. North),(+ deg. East),(m),(deg. C)
1981-02-17 19:30:00 UTC,2444653.312500,29.4519,-93.4333,0107,11.2000
1981-02-17 20:00:00 UTC,2444653.333333,29.4519,-93.4333,0107,11.2000
1981-02-17 20:30:00 UTC,2444653.354167,29.4519,-93.4333,0107,11.2000
1981-02-17 21:00:00 UTC,2444653.375000,29.4519,-93.4333,0107,11.2000
1981-02-17 21:30:00 UTC,2444653.395833,29.4519,-93.4333,0107,11.2000
1981-02-17 22:00:00 UTC,2444653.416667,29.4519,-93.4333,0107,11.2000
1981-02-17 22:30:00 UTC,2444653.437500,29.4519,-93.4333,0107,11.2000
1981-02-17 23:00:00 UTC,2444653.458333,29.4519,-93.4333,0107,11.2000
1981-02-17 23:30:00 UTC,2444653.479167,29.4519,-93.4333,0107,11.2000
1981-02-18 00:00:00 UTC,2444653.500000,29.4519,-93.4333,0107,11.2000
1981-02-18 00:30:00 UTC,2444653.520833,29.4519,-93.4333,0107,11.2000
1981-02-18 01:00:00 UTC,2444653.541667,29.4519,-93.4333,0107,11.2000
1981-02-18 01:30:00 UTC,2444653.562500,29.4519,-93.4333,0107,11.2000
1981-02-18 02:00:00 UTC,2444653.583333,29.4519,-93.4333,0107,11.2000
1981-02-18 02:30:00 UTC,2444653.604167,29.4519,-93.4333,0107,11.2000
1981-02-18 03:00:00 UTC,2444653.625000,29.4519,-93.4333,0107,11.2000
1981-02-18 03:30:00 UTC,2444653.645833,29.4519,-93.4333,0107,11.2000
1981-02-18 04:00:00 UTC,2444653.666667,29.4519,-93.4333,0107,11.3000
1981-02-18 04:30:00 UTC,2444653.687500,29.4519,-93.4333,0107,11.3000
1981-02-18 05:00:00 UTC,2444653.708333,29.4519,-93.4333,0107,11.3000
1981-02-18 05:30:00 UTC,2444653.729167,29.4519,-93.4333,0107,11.3000
1981-02-18 06:00:00 UTC,2444653.750000,29.4519,-93.4333,0107,11.3000
1981-02-18 06:30:00 UTC,2444653.770833,29.4519,-93.4333,0107,11.3000
1981-02-18 07:00:00 UTC,2444653.791667,29.4519,-93.4333,0107,11.3000
1981-02-18 07:30:00 UTC,2444653.812500,29.4519,-93.4333,0107,11.4000
1981-02-18 08:00:00 UTC,2444653.833333,29.4519,-93.4333,0107,11.4000
1981-02-18 08:30:00 UTC,2444653.854167,29.4519,-93.4333,0107,11.4000
1981-02-18 09:00:00 UTC,2444653.875000,29.4519,-93.4333,0107,11.4000
1981-02-18 09:30:00 UTC,2444653.895833,29.4519,-93.4333,0107,11.4000
1981-02-18 10:00:00 UTC,2444653.916667,29.4519,-93.4333,0107,11.4000
1981-02-18 10:30:00 UTC,2444653.937500,29.4519,-93.4333,0107,11.4000
1981-02-18 11:00:00 UTC,2444653.958333,29.4519,-93.4333,0107,11.4000
1981-02-18 11:30:00 UTC,2444653.979167,29.4519,-93.4333,0107,11.4000
1981-02-18 12:00:00 UTC,2444654.000000,29.4519,-93.4333,0107,11.4000
1981-02-18 12:30:00 UTC,2444654.020833,29.4519,-93.4333,0107,11.4000
1981-02-18 13:00:00 UTC,2444654.041667,29.4519,-93.4333,0107,11.4000
1981-02-18 13:30:00 UTC,2444654.062500,29.4519,-93.4333,0107,11.4000
1981-02-18 14:00:00 UTC,2444654.083333,29.4519,-93.4333,0107,11.4000
1981-02-18 14:30:00 UTC,2444654.104167,29.4519,-93.4333,0107,11.4000
1981-02-18 15:00:00 UTC,2444654.125000,29.4519,-93.4333,0107,11.4000
1981-02-18 15:30:00 UTC,2444654.145833,29.4519,-93.4333,0107,11.4000
1981-02-18 16:00:00 UTC,2444654.166667,29.4519,-93.4333,0107,11.4000
1981-02-18 16:30:00 UTC,2444654.187500,29.4519,-93.4333,0107,11.4000
1981-02-18 17:00:00 UTC,2444654.208333,29.4519,-93.4333,0107,11.4000
1981-02-18 17:30:00 UTC,2444654.229167,29.4519,-93.4333,0107,11.4000
1981-02-18 18:00:00 UTC,2444654.250000,29.4519,-93.4333,0107,11.5000
1981-02-18 18:30:00 UTC,2444654.270833,29.4519,-93.4333,0107,11.5000
1981-02-18 19:00:00 UTC,2444654.291667,29.4519,-93.4333,0107,11.5000
1981-02-18 19:30:00 UTC,2444654.312500,29.4519,-93.4333,0107,11.5000
1981-02-18 20:00:00 UTC,2444654.333333,29.4519,-93.4333,0107,11.5000
1981-02-18 20:30:00 UTC,2444654.354167,29.4519,-93.4333,0107,11.5000
1981-02-18 21:00:00 UTC,2444654.375000,29.4519,-93.4333,0107,11.5000
1981-02-18 21:30:00 UTC,2444654.395833,29.4519,-93.4333,0107,11.5000
1981-02-18 22:00:00 UTC,2444654.416667,29.4519,-93.4333,0107,11.5000
1981-02-18 22:30:00 UTC,2444654.437500,29.4519,-93.4333,0107,11.5000
1981-02-18 23:00:00 UTC,2444654.458333,29.4519,-93.4333,0107,11.5000
1981-02-18 23:30:00 UTC,2444654.479167,29.4519,-93.4333,0107,11.5000
1981-02-19 00:00:00 UTC,2444654.500000,29.4519,-93.4333,0107,11.5000
1981-02-19 00:30:00 UTC,2444654.520833,29.4519,-93.4333,0107,11.5000
1981-02-19 01:00:00 UTC,2444654.541667,29.4519,-93.4333,0107,11.5000
1981-02-19 01:30:00 UTC,2444654.562500,29.4519,-93.4333,0107,11.5000
1981-02-19 02:00:00 UTC,2444654.583333,29.4519,-93.4333,0107,11.5000
1981-02-19 02:30:00 UTC,2444654.604167,29.4519,-93.4333,0107,11.5000
1981-02-19 03:00:00 UTC,2444654.625000,29.4519,-93.4333,0107,11.5000
1981-02-19 03:30:00 UTC,2444654.645833,29.4519,-93.4333,0107,11.5000
1981-02-19 04:00:00 UTC,2444654.666667,29.4519,-93.4333,0107,11.5000
1981-02-19 04:30:00 UTC,2444654.687500,29.4519,-93.4333,0107,11.5000
1981-02-19 05:00:00 UTC,2444654.708333,29.4519,-93.4333,0107,11.5000
1981-02-19 05:30:00 UTC,2444654.729167,29.4519,-93.4333,0107,11.5000
1981-02-19 06:00:00 UTC,2444654.750000,29.4519,-93.4333,0107,11.5000
1981-02-19 06:30:00 UTC,2444654.770833,29.4519,-93.4333,0107,11.5000
1981-02-19 07:00:00 UTC,2444654.791667,29.4519,-93.4333,0107,11.5000
1981-02-19 07:30:00 UTC,2444654.812500,29.4519,-93.4333,0107,11.5000
1981-02-19 08:00:00 UTC,2444654.833333,29.4519,-93.4333,0107,11.5000
1981-02-19 08:30:00 UTC,2444654.854167,29.4519,-93.4333,0107,11.5000
1981-02-19 09:00:00 UTC,2444654.875000,29.4519,-93.4333,0107,11.5000
1981-02-19 09:30:00 UTC,2444654.895833,29.4519,-93.4333,0107,11.5000
1981-02-19 10:00:00 UTC,2444654.916667,29.4519,-93.4333,0107,11.5000
1981-02-19 10:30:00 UTC,2444654.937500,29.4519,-93.4333,0107,11.5000
1981-02-19 11:00:00 UTC,2444654.958333,29.4519,-93.4333,0107,11.5000
1981-02-19 11:30:00 UTC,2444654.979167,29.4519,-93.4333,0107,11.5000
1981-02-19 12:00:00 UTC,2444655.000000,29.4519,-93.4333,0107,11.5000
1981-02-19 12:30:00 UTC,2444655.020833,29.4519,-93.4333,0107,11.5000
1981-02-19 13:00:00 UTC,2444655.041667,29.4519,-93.4333,0107,11.5000
1981-02-19 13:30:00 UTC,2444655.062500,29.4519,-93.4333,0107,11.5000
1981-02-19 14:00:00 UTC,2444655.083333,29.4519,-93.4333,0107,11.5000
1981-02-19 14:30:00 UTC,2444655.104167,29.4519,-93.4333,0107,11.5000
1981-02-19 15:00:00 UTC,2444655.125000,29.4519,-93.4333,0107,11.5000
1981-02-19 15:30:00 UTC,2444655.145833,29.4519,-93.4333,0107,11.5000
1981-02-19 16:00:00 UTC,2444655.166667,29.4519,-93.4333,0107,11.5000
1981-02-19 16:30:00 UTC,2444655.187500,29.4519,-93.4333,0107,11.6000
1981-02-19 17:00:00 UTC,2444655.208333,29.4519,-93.4333,0107,11.6000
1981-02-19 17:30:00 UTC,2444655.229167,29.4519,-93.4333,0107,11.6000
1981-02-19 18:00:00 UTC,2444655.250000,29.4519,-93.4333,0107,11.6000
1981-02-19 18:30:00 UTC,2444655.270833,29.4519,-93.4333,0107,11.6000
1981-02-19 19:00:00 UTC,2444655.291667,29.4519,-93.4333,0107,11.6000
1981-02-19 19:30:00 UTC,2444655.312500,29.4519,-93.4333,0107,11.6000
1981-02-19 20:00:00 UTC,2444655.333333,29.4519,-93.4333,0107,11.6000
1981-02-19 20:30:00 UTC,2444655.354167,29.4519,-93.4333,0107,11.6000
1981-02-19 21:00:00 UTC,2444655.375000,29.4519,-93.4333,0107,11.6000
1981-02-19 21:30:00 UTC,2444655.395833,29.4519,-93.4333,0107,11.6000
1981-02-19 22:00:00 UTC,2444655.416667,29.4519,-93.4333,0107,11.6000
1981-02-19 22:30:00 UTC,2444655.437500,29.4519,-93.4333,0107,11.6000
1981-02-19 23:00:00 UTC,2444655.458333,29.4519,-93.4333,0107,11.6000
1981-02-19 23:30:00 UTC,2444655.479167,29.4519,-93.4333,0107,11.6000
1981-02-20 00:00:00 UTC,2444655.500000,29.4519,-93.4333,0107,11.6000
1981-02-20 00:30:00 UTC,2444655.520833,29.4519,-93.4333,0107,11.6000
1981-02-20 01:00:00 UTC,2444655.541667,29.4519,-93.4333,0107,11.6000
1981-02-20 01:30:00 UTC,2444655.562500,29.4519,-93.4333,0107,11.6000
1981-02-20 02:00:00 UTC,2444655.583333,29.4519,-93.4333,0107,11.6000
1981-02-20 02:30:00 UTC,2444655.604167,29.4519,-93.4333,0107,11.6000
1981-02-20 03:00:00 UTC,2444655.625000,29.4519,-93.4333,0107,11.6000
1981-02-20 03:30:00 UTC,2444655.645833,29.4519,-93.4333,0107,11.6000
1981-02-20 04:00:00 UTC,2444655.666667,29.4519,-93.4333,0107,11.6000
1981-02-20 04:30:00 UTC,2444655.687500,29.4519,-93.4333,0107,11.6000
1981-02-20 05:00:00 UTC,2444655.708333,29.4519,-93.4333,0107,11.6000
1981-02-20 05:30:00 UTC,2444655.729167,29.4519,-93.4333,0107,11.7000
1981-02-20 06:00:00 UTC,2444655.750000,29.4519,-93.4333,0107,11.7000
1981-02-20 06:30:00 UTC,2444655.770833,29.4519,-93.4333,0107,11.7000
1981-02-20 07:00:00 UTC,2444655.791667,29.4519,-93.4333,0107,11.7000
1981-02-20 07:30:00 UTC,2444655.812500,29.4519,-93.4333,0107,11.7000
1981-02-20 08:00:00 UTC,2444655.833333,29.4519,-93.4333,0107,11.7000
1981-02-20 08:30:00 UTC,2444655.854167,29.4519,-93.4333,0107,11.7000
1981-02-20 09:00:00 UTC,2444655.875000,29.4519,-93.4333,0107,11.7000
1981-02-20 09:30:00 UTC,2444655.895833,29.4519,-93.4333,0107,11.7000
1981-02-20 10:00:00 UTC,2444655.916667,29.4519,-93.4333,0107,11.7000
1981-02-20 10:30:00 UTC,2444655.937500,29.4519,-93.4333,0107,11.7000
1981-02-20 11:00:00 UTC,2444655.958333,29.4519,-93.4333,0107,11.7000
1981-02-20 11:30:00 UTC,2444655.979167,29.4519,-93.4333,0107,11.7000
1981-02-20 12:00:00 UTC,2444656.000000,29.4519,-93.4333,0107,11.7000
1981-02-20 12:30:00 UTC,2444656.020833,29.4519,-93.4333,0107,11.7000
1981-02-20 13:00:00 UTC,2444656.041667,29.4519,-93.4333,0107,11.7000
1981-02-20 13:30:00 UTC,2444656.062500,29.4519,-93.4333,0107,11.7000
1981-02-20 14:00:00 UTC,2444656.083333,29.4519,-93.4333,0107,11.7000
1981-02-20 14:30:00 UTC,2444656.104167,29.4519,-93.4333,0107,11.7000
1981-02-20 15:00:00 UTC,2444656.125000,29.4519,-93.4333,0107,11.7000
1981-02-20 15:30:00 UTC,2444656.145833,29.4519,-93.4333,0107,11.7000
1981-02-20 16:00:00 UTC,2444656.166667,29.4519,-93.4333,0107,11.7000
1981-02-20 16:30:00 UTC,2444656.187500,29.4519,-93.4333,0107,11.7000
1981-02-20 17:00:00 UTC,2444656.208333,29.4519,-93.4333,0107,11.7000
1981-02-20 17:30:00 UTC,2444656.229167,29.4519,-93.4333,0107,11.7000
1981-02-20 18:00:00 UTC,2444656.250000,29.4519,-93.4333,0107,11.7000
1981-02-20 18:30:00 UTC,2444656.270833,29.4519,-93.4333,0107,11.7000
1981-02-20 19:00:00 UTC,2444656.291667,29.4519,-93.4333,0107,11.7000
1981-02-20 19:30:00 UTC,2444656.312500,29.4519,-93.4333,0107,11.7000
1981-02-20 20:00:00 UTC,2444656.333333,29.4519,-93.4333,0107,11.7000
1981-02-20 20:30:00 UTC,2444656.354167,29.4519,-93.4333,0107,11.7000
1981-02-20 21:00:00 UTC,2444656.375000,29.4519,-93.4333,0107,11.7000
1981-02-20 21:30:00 UTC,2444656.395833,29.4519,-93.4333,0107,11.7000
1981-02-20 22:00:00 UTC,2444656.416667,29.4519,-93.4333,0107,11.7000
1981-02-20 22:30:00 UTC,2444656.437500,29.4519,-93.4333,0107,11.7000
1981-02-20 23:00:00 UTC,2444656.458333,29.4519,-93.4333,0107,11.7000
1981-02-20 23:30:00 UTC,2444656.479167,29.4519,-93.4333,0107,11.7000
1981-02-21 00:00:00 UTC,2444656.500000,29.4519,-93.4333,0107,11.7000
1981-02-21 00:30:00 UTC,2444656.520833,29.4519,-93.4333,0107,11.7000
1981-02-21 01:00:00 UTC,2444656.541667,29.4519,-93.4333,0107,11.7000
1981-02-21 01:30:00 UTC,2444656.562500,29.4519,-93.4333,0107,11.7000
1981-02-21 02:00:00 UTC,2444656.583333,29.4519,-93.4333,0107,11.7000
1981-02-21 02:30:00 UTC,2444656.604167,29.4519,-93.4333,0107,11.7000
1981-02-21 03:00:00 UTC,2444656.625000,29.4519,-93.4333,0107,11.7000
1981-02-21 03:30:00 UTC,2444656.645833,29.4519,-93.4333,0107,11.7000
1981-02-21 04:00:00 UTC,2444656.666667,29.4519,-93.4333,0107,11.7000
1981-02-21 04:30:00 UTC,2444656.687500,29.4519,-93.4333,0107,11.7000
1981-02-21 05:00:00 UTC,2444656.708333,29.4519,-93.4333,0107,11.7000
1981-02-21 05:30:00 UTC,2444656.729167,29.4519,-93.4333,0107,11.7000
1981-02-21 06:00:00 UTC,2444656.750000,29.4519,-93.4333,0107,11.7000
1981-02-21 06:30:00 UTC,2444656.770833,29.4519,-93.4333,0107,11.7000
1981-02-21 07:00:00 UTC,2444656.791667,29.4519,-93.4333,0107,11.7000
1981-02-21 07:30:00 UTC,2444656.812500,29.4519,-93.4333,0107,11.8000
1981-02-21 08:00:00 UTC,2444656.833333,29.4519,-93.4333,0107,11.8000
1981-02-21 08:30:00 UTC,2444656.854167,29.4519,-93.4333,0107,11.8000
1981-02-21 09:00:00 UTC,2444656.875000,29.4519,-93.4333,0107,11.8000
1981-02-21 09:30:00 UTC,2444656.895833,29.4519,-93.4333,0107,11.8000
1981-02-21 10:00:00 UTC,2444656.916667,29.4519,-93.4333,0107,11.7000
1981-02-21 10:30:00 UTC,2444656.937500,29.4519,-93.4333,0107,11.7000
1981-02-21 11:00:00 UTC,2444656.958333,29.4519,-93.4333,0107,11.7000
1981-02-21 11:30:00 UTC,2444656.979167,29.4519,-93.4333,0107,11.7000
1981-02-21 12:00:00 UTC,2444657.000000,29.4519,-93.4333,0107,11.7000
1981-02-21 12:30:00 UTC,2444657.020833,29.4519,-93.4333,0107,11.7000
1981-02-21 13:00:00 UTC,2444657.041667,29.4519,-93.4333,0107,11.7000
1981-02-21 13:30:00 UTC,2444657.062500,29.4519,-93.4333,0107,11.7000
1981-02-21 14:00:00 UTC,2444657.083333,29.4519,-93.4333,0107,11.7000
1981-02-21 14:30:00 UTC,2444657.104167,29.4519,-93.4333,0107,11.7000
1981-02-21 15:00:00 UTC,2444657.125000,29.4519,-93.4333,0107,11.7000
1981-02-21 15:30:00 UTC,2444657.145833,29.4519,-93.4333,0107,11.7000
1981-02-21 16:00:00 UTC,2444657.166667,29.4519,-93.4333,0107,11.7000
1981-02-21 16:30:00 UTC,2444657.187500,29.4519,-93.4333,0107,11.7000
1981-02-21 17:00:00 UTC,2444657.208333,29.4519,-93.4333,0107,11.7000
1981-02-21 17:30:00 UTC,2444657.229167,29.4519,-93.4333,0107,11.7000
1981-02-21 18:00:00 UTC,2444657.250000,29.4519,-93.4333,0107,11.7000
1981-02-21 18:30:00 UTC,2444657.270833,29.4519,-93.4333,0107,11.7000
1981-02-21 19:00:00 UTC,2444657.291667,29.4519,-93.4333,0107,11.7000
1981-02-21 19:30:00 UTC,2444657.312500,29.4519,-93.4333,0107,11.7000
1981-02-21 20:00:00 UTC,2444657.333333,29.4519,-93.4333,0107,11.7000
1981-02-21 20:30:00 UTC,2444657.354167,29.4519,-93.4333,0107,11.7000
1981-02-21 21:00:00 UTC,2444657.375000,29.4519,-93.4333,0107,11.7000
1981-02-21 21:30:00 UTC,2444657.395833,29.4519,-93.4333,0107,11.7000
1981-02-21 22:00:00 UTC,2444657.416667,29.4519,-93.4333,0107,11.7000
1981-02-21 22:30:00 UTC,2444657.437500,29.4519,-93.4333,0107,11.7000
1981-02-21 23:00:00 UTC,2444657.458333,29.4519,-93.4333,0107,11.8000
1981-02-21 23:30:00 UTC,2444657.479167,29.4519,-93.4333,0107,11.8000
1981-02-22 00:00:00 UTC,2444657.500000,29.4519,-93.4333,0107,11.8000
1981-02-22 00:30:00 UTC,2444657.520833,29.4519,-93.4333,0107,11.8000
1981-02-22 01:00:00 UTC,2444657.541667,29.4519,-93.4333,0107,11.8000
1981-02-22 01:30:00 UTC,2444657.562500,29.4519,-93.4333,0107,11.8000
1981-02-22 02:00:00 UTC,2444657.583333,29.4519,-93.4333,0107,11.8000
1981-02-22 02:30:00 UTC,2444657.604167,29.4519,-93.4333,0107,11.8000
1981-02-22 03:00:00 UTC,2444657.625000,29.4519,-93.4333,0107,11.8000
1981-02-22 03:30:00 UTC,2444657.645833,29.4519,-93.4333,0107,11.8000
1981-02-22 04:00:00 UTC,2444657.666667,29.4519,-93.4333,0107,11.8000
1981-02-22 04:30:00 UTC,2444657.687500,29.4519,-93.4333,0107,11.8000
1981-02-22 05:00:00 UTC,2444657.708333,29.4519,-93.4333,0107,11.8000
1981-02-22 05:30:00 UTC,2444657.729167,29.4519,-93.4333,0107,11.8000
1981-02-22 06:00:00 UTC,2444657.750000,29.4519,-93.4333,0107,11.8000
1981-02-22 06:30:00 UTC,2444657.770833,29.4519,-93.4333,0107,11.8000
1981-02-22 07:00:00 UTC,2444657.791667,29.4519,-93.4333,0107,11.8000
1981-02-22 07:30:00 UTC,2444657.812500,29.4519,-93.4333,0107,11.8000
1981-02-22 08:00:00 UTC,2444657.833333,29.4519,-93.4333,0107,11.8000
1981-02-22 08:30:00 UTC,2444657.854167,29.4519,-93.4333,0107,11.8000
1981-02-22 09:00:00 UTC,2444657.875000,29.4519,-93.4333,0107,11.8000
1981-02-22 09:30:00 UTC,2444657.895833,29.4519,-93.4333,0107,11.8000
1981-02-22 10:00:00 UTC,2444657.916667,29.4519,-93.4333,0107,11.8000
1981-02-22 10:30:00 UTC,2444657.937500,29.4519,-93.4333,0107,11.8000
1981-02-22 11:00:00 UTC,2444657.958333,29.4519,-93.4333,0107,11.8000
1981-02-22 11:30:00 UTC,2444657.979167,29.4519,-93.4333,0107,11.8000
1981-02-22 12:00:00 UTC,2444658.000000,29.4519,-93.4333,0107,11.8000
1981-02-22 12:30:00 UTC,2444658.020833,29.4519,-93.4333,0107,11.8000
1981-02-22 13:00:00 UTC,2444658.041667,29.4519,-93.4333,0107,11.8000
1981-02-22 13:30:00 UTC,2444658.062500,29.4519,-93.4333,0107,11.8000
1981-02-22 14:00:00 UTC,2444658.083333,29.4519,-93.4333,0107,11.8000
1981-02-22 14:30:00 UTC,2444658.104167,29.4519,-93.4333,0107,11.8000
1981-02-22 15:00:00 UTC,2444658.125000,29.4519,-93.4333,0107,11.8000
1981-02-22 15:30:00 UTC,2444658.145833,29.4519,-93.4333,0107,11.8000
1981-02-22 16:00:00 UTC,2444658.166667,29.4519,-93.4333,0107,11.8000
1981-02-22 16:30:00 UTC,2444658.187500,29.4519,-93.4333,0107,11.9000
1981-02-22 17:00:00 UTC,2444658.208333,29.4519,-93.4333,0107,11.9000
1981-02-22 17:30:00 UTC,2444658.229167,29.4519,-93.4333,0107,11.9000
1981-02-22 18:00:00 UTC,2444658.250000,29.4519,-93.4333,0107,11.9000
1981-02-22 18:30:00 UTC,2444658.270833,29.4519,-93.4333,0107,12.0000
1981-02-22 19:00:00 UTC,2444658.291667,29.4519,-93.4333,0107,12.0000
1981-02-22 19:30:00 UTC,2444658.312500,29.4519,-93.4333,0107,12.1000
1981-02-22 20:00:00 UTC,2444658.333333,29.4519,-93.4333,0107,12.1000
1981-02-22 20:30:00 UTC,2444658.354167,29.4519,-93.4333,0107,12.2000
1981-02-22 21:00:00 UTC,2444658.375000,29.4519,-93.4333,0107,12.2000
1981-02-22 21:30:00 UTC,2444658.395833,29.4519,-93.4333,0107,12.3000
1981-02-22 22:00:00 UTC,2444658.416667,29.4519,-93.4333,0107,12.3000
1981-02-22 22:30:00 UTC,2444658.437500,29.4519,-93.4333,0107,12.3000
1981-02-22 23:00:00 UTC,2444658.458333,29.4519,-93.4333,0107,12.3000
1981-02-22 23:30:00 UTC,2444658.479167,29.4519,-93.4333,0107,12.3000
1981-02-23 00:00:00 UTC,2444658.500000,29.4519,-93.4333,0107,12.4000
1981-02-23 00:30:00 UTC,2444658.520833,29.4519,-93.4333,0107,12.4000
1981-02-23 01:00:00 UTC,2444658.541667,29.4519,-93.4333,0107,12.4000
1981-02-23 01:30:00 UTC,2444658.562500,29.4519,-93.4333,0107,12.4000
1981-02-23 02:00:00 UTC,2444658.583333,29.4519,-93.4333,0107,12.4000
1981-02-23 02:30:00 UTC,2444658.604167,29.4519,-93.4333,0107,12.4000
1981-02-23 03:00:00 UTC,2444658.625000,29.4519,-93.4333,0107,12.4000
1981-02-23 03:30:00 UTC,2444658.645833,29.4519,-93.4333,0107,12.4000
1981-02-23 04:00:00 UTC,2444658.666667,29.4519,-93.4333,0107,12.5000
1981-02-23 04:30:00 UTC,2444658.687500,29.4519,-93.4333,0107,12.5000
1981-02-23 05:00:00 UTC,2444658.708333,29.4519,-93.4333,0107,12.5000
1981-02-23 05:30:00 UTC,2444658.729167,29.4519,-93.4333,0107,12.5000
1981-02-23 06:00:00 UTC,2444658.750000,29.4519,-93.4333,0107,12.5000
1981-02-23 06:30:00 UTC,2444658.770833,29.4519,-93.4333,0107,12.5000
1981-02-23 07:00:00 UTC,2444658.791667,29.4519,-93.4333,0107,12.5000
1981-02-23 07:30:00 UTC,2444658.812500,29.4519,-93.4333,0107,12.5000
1981-02-23 08:00:00 UTC,2444658.833333,29.4519,-93.4333,0107,12.5000
1981-02-23 08:30:00 UTC,2444658.854167,29.4519,-93.4333,0107,12.4000
1981-02-23 09:00:00 UTC,2444658.875000,29.4519,-93.4333,0107,12.4000
1981-02-23 09:30:00 UTC,2444658.895833,29.4519,-93.4333,0107,12.4000
1981-02-23 10:00:00 UTC,2444658.916667,29.4519,-93.4333,0107,12.5000
1981-02-23 10:30:00 UTC,2444658.937500,29.4519,-93.4333,0107,12.5000
1981-02-23 11:00:00 UTC,2444658.958333,29.4519,-93.4333,0107,12.5000
1981-02-23 11:30:00 UTC,2444658.979167,29.4519,-93.4333,0107,12.5000
1981-02-23 12:00:00 UTC,2444659.000000,29.4519,-93.4333,0107,12.5000
1981-02-23 12:30:00 UTC,2444659.020833,29.4519,-93.4333,0107,12.5000
1981-02-23 13:00:00 UTC,2444659.041667,29.4519,-93.4333,0107,12.5000
1981-02-23 13:30:00 UTC,2444659.062500,29.4519,-93.4333,0107,12.5000
1981-02-23 14:00:00 UTC,2444659.083333,29.4519,-93.4333,0107,12.5000
1981-02-23 14:30:00 UTC,2444659.104167,29.4519,-93.4333,0107,12.5000
1981-02-23 15:00:00 UTC,2444659.125000,29.4519,-93.4333,0107,12.5000
1981-02-23 15:30:00 UTC,2444659.145833,29.4519,-93.4333,0107,12.5000
1981-02-23 16:00:00 UTC,2444659.166667,29.4519,-93.4333,0107,12.6000
1981-02-23 16:30:00 UTC,2444659.187500,29.4519,-93.4333,0107,12.6000
1981-02-23 17:00:00 UTC,2444659.208333,29.4519,-93.4333,0107,12.6000
1981-02-23 17:30:00 UTC,2444659.229167,29.4519,-93.4333,0107,12.6000
1981-02-23 18:00:00 UTC,2444659.250000,29.4519,-93.4333,0107,12.6000
1981-02-23 18:30:00 UTC,2444659.270833,29.4519,-93.4333,0107,12.7000
1981-02-23 19:00:00 UTC,2444659.291667,29.4519,-93.4333,0107,12.7000
1981-02-23 19:30:00 UTC,2444659.312500,29.4519,-93.4333,0107,12.7000
1981-02-23 20:00:00 UTC,2444659.333333,29.4519,-93.4333,0107,12.7000
1981-02-23 20:30:00 UTC,2444659.354167,29.4519,-93.4333,0107,12.8000
1981-02-23 21:00:00 UTC,2444659.375000,29.4519,-93.4333,0107,12.8000
1981-02-23 21:30:00 UTC,2444659.395833,29.4519,-93.4333,0107,12.8000
1981-02-23 22:00:00 UTC,2444659.416667,29.4519,-93.4333,0107,12.8000
1981-02-23 22:30:00 UTC,2444659.437500,29.4519,-93.4333,0107,12.8000
1981-02-23 23:00:00 UTC,2444659.458333,29.4519,-93.4333,0107,12.8000
1981-02-23 23:30:00 UTC,2444659.479167,29.4519,-93.4333,0107,12.8000
1981-02-24 00:00:00 UTC,2444659.500000,29.4519,-93.4333,0107,12.8000
1981-02-24 00:30:00 UTC,2444659.520833,29.4519,-93.4333,0107,12.8000
1981-02-24 01:00:00 UTC,2444659.541667,29.4519,-93.4333,0107,12.8000
1981-02-24 01:30:00 UTC,2444659.562500,29.4519,-93.4333,0107,12.8000
1981-02-24 02:00:00 UTC,2444659.583333,29.4519,-93.4333,0107,12.8000
1981-02-24 02:30:00 UTC,2444659.604167,29.4519,-93.4333,0107,12.8000
1981-02-24 03:00:00 UTC,2444659.625000,29.4519,-93.4333,0107,12.8000
1981-02-24 03:30:00 UTC,2444659.645833,29.4519,-93.4333,0107,12.8000
1981-02-24 04:00:00 UTC,2444659.666667,29.4519,-93.4333,0107,12.8000
1981-02-24 04:30:00 UTC,2444659.687500,29.4519,-93.4333,0107,12.8000
1981-02-24 05:00:00 UTC,2444659.708333,29.4519,-93.4333,0107,12.8000
1981-02-24 05:30:00 UTC,2444659.729167,29.4519,-93.4333,0107,12.9000
1981-02-24 06:00:00 UTC,2444659.750000,29.4519,-93.4333,0107,12.9000
1981-02-24 06:30:00 UTC,2444659.770833,29.4519,-93.4333,0107,12.9000
1981-02-24 07:00:00 UTC,2444659.791667,29.4519,-93.4333,0107,12.9000
1981-02-24 07:30:00 UTC,2444659.812500,29.4519,-93.4333,0107,12.9000
1981-02-24 08:00:00 UTC,2444659.833333,29.4519,-93.4333,0107,12.9000
1981-02-24 08:30:00 UTC,2444659.854167,29.4519,-93.4333,0107,12.9000
1981-02-24 09:00:00 UTC,2444659.875000,29.4519,-93.4333,0107,12.9000
1981-02-24 09:30:00 UTC,2444659.895833,29.4519,-93.4333,0107,13.0000
1981-02-24 10:00:00 UTC,2444659.916667,29.4519,-93.4333,0107,13.0000
1981-02-24 10:30:00 UTC,2444659.937500,29.4519,-93.4333,0107,13.0000
1981-02-24 11:00:00 UTC,2444659.958333,29.4519,-93.4333,0107,13.0000
1981-02-24 11:30:00 UTC,2444659.979167,29.4519,-93.4333,0107,13.0000
1981-02-24 12:00:00 UTC,2444660.000000,29.4519,-93.4333,0107,13.0000
1981-02-24 12:30:00 UTC,2444660.020833,29.4519,-93.4333,0107,13.0000
1981-02-24 13:00:00 UTC,2444660.041667,29.4519,-93.4333,0107,13.0000
1981-02-24 13:30:00 UTC,2444660.062500,29.4519,-93.4333,0107,13.0000
1981-02-24 14:00:00 UTC,2444660.083333,29.4519,-93.4333,0107,13.0000
1981-02-24 14:30:00 UTC,2444660.104167,29.4519,-93.4333,0107,13.0000
1981-02-24 15:00:00 UTC,2444660.125000,29.4519,-93.4333,0107,13.0000
1981-02-24 15:30:00 UTC,2444660.145833,29.4519,-93.4333,0107,13.0000
1981-02-24 16:00:00 UTC,2444660.166667,29.4519,-93.4333,0107,13.0000
1981-02-24 16:30:00 UTC,2444660.187500,29.4519,-93.4333,0107,13.0000
1981-02-24 17:00:00 UTC,2444660.208333,29.4519,-93.4333,0107,13.1000
1981-02-24 17:30:00 UTC,2444660.229167,29.4519,-93.4333,0107,13.1000
1981-02-24 18:00:00 UTC,2444660.250000,29.4519,-93.4333,0107,13.1000
1981-02-24 18:30:00 UTC,2444660.270833,29.4519,-93.4333,0107,13.1000
1981-02-24 19:00:00 UTC,2444660.291667,29.4519,-93.4333,0107,13.1000
1981-02-24 19:30:00 UTC,2444660.312500,29.4519,-93.4333,0107,13.1000
1981-02-24 20:00:00 UTC,2444660.333333,29.4519,-93.4333,0107,13.1000
1981-02-24 20:30:00 UTC,2444660.354167,29.4519,-93.4333,0107,13.1000
1981-02-24 21:00:00 UTC,2444660.375000,29.4519,-93.4333,0107,13.1000
1981-02-24 21:30:00 UTC,2444660.395833,29.4519,-93.4333,0107,13.1000
1981-02-24 22:00:00 UTC,2444660.416667,29.4519,-93.4333,0107,13.1000
1981-02-24 22:30:00 UTC,2444660.437500,29.4519,-93.4333,0107,13.1000
1981-02-24 23:00:00 UTC,2444660.458333,29.4519,-93.4333,0107,13.1000
1981-02-24 23:30:00 UTC,2444660.479167,29.4519,-93.4333,0107,13.1000